GLOBALSTAR M036 (25623 NORAD) Tracking and Keplerian Element Data

This shows tracking and keplerian element data for the satellite.

Feedback or suggestion? Click here.




ElementValue
Catalog25623
NameGLOBALSTAR M036
Epoch Orbit20104
Epoch Day354.06048808
Epoch Year2025
RAAN110.3893
Inclination51.9964
Eccentricity0.001084
Argument of Perigee50.4818
Mean Anonmoly120.5297
Mean Motion11.86617741
Decay Rate-1.26E-06
L11 25623U 99004C 25354.06048808 -.00000126 00000+0 -62414-3 0 9993
L22 25623 51.9964 110.3893 0010840 50.4818 120.5297 11.86617741201043



Live tracking and technical data element details for GLOBALSTAR M036 (NORAD 25623). GLOBALSTAR M036 can be tracked NOW for your location showing map with azimuth and elevation plus other details from your city location.







IsCatalogInMostPopularTable: catalog: 25623, numindb: 385
Update: records affected: 1



GetName: 25623 GLOBALSTAR M036

Hit Count: updated at: Sat, 07 Mar 2026 06:01:36 GMT